[[{"header":{"parameterUnit":"m.s-1","parameterCategory":1,"la1":30.2991,"la2":30.254,"lo1":-89.0895,"lo2":-89.0444,"dy":0.0017,"dx":0.0017,"nx":28,"ny":28,"refTime":"2023-08-12T03:00:00:Z","depth":0,"parameterNumber":2,"parameterNumberName":"U-component_of_WINDS"},"data":[0,0,0,0,0,0,0,0,0,0,0,0,0,0,0,0,0,0,0,0,0,0,0,0,0,0,0,0,0,0,0,0,0,0,0,0,0,0,0,0,0,0,0,0,0,0,0,0,0,0,0,0,0,0,0,0,0,0,2.1618,2.1618,0,2.166,2.166,2.1661,2.1579,2.1576,2.1573,2.1571,2.1617,2.162,2.1624,0,0,0,0,0,0,0,0,0,0,0,0,0,2.1467,2.147,2.1618,2.1618,2.1619,2.166,2.166,2.1661,2.1579,2.1576,2.1573,2.157,2.1615,2.162,2.1624,0,0,0,0,0,0,0,0,0,0,0,0,0,2.1523,2.1471,2.1618,2.1583,2.158,2.166,2.166,2.1661,2.158,2.1576,2.1572,2.1568,2.1614,2.1619,2.1625,2.1741,0,0,2.1642,2.1644,0,0,0,0,0,0,0,0,2.152,2.1529,2.1588,2.1586,2.1583,2.161,2.1624,2.1688,2.1581,2.158,2.1571,2.1566,2.1618,2.1623,2.164,2.1743,2.1745,2.1642,2.1646,2.1648,2.165,0,0,0,0,0,0,0,2.1516,2.1526,2.1634,2.1589,2.1586,2.1565,2.1569,2.1635,2.1621,2.158,2.1574,2.158,2.1616,2.1634,2.164,2.1745,2.1642,2.1647,2.1651,2.1653,2.1943,2.1947,0,0,0,0,0,0,2.1516,2.1524,2.1633,2.1636,2.154,2.1571,2.1575,2.1605,2.162,2.1619,2.1584,2.1576,2.1627,2.1634,2.1641,2.1776,2.1648,2.1653,2.1657,2.1938,2.1943,2.1948,0,0,0,0,0,0,2.1513,2.1527,2.1631,2.1578,2.159,2.1578,2.1613,2.1608,2.1627,2.1623,2.162,2.1605,2.1624,2.1634,2.1716,2.1777,2.1656,2.1661,2.1933,2.194,2.1946,2.2048,0,0,0,0,0,0,2.1509,2.1526,2.1571,2.158,2.1593,2.1706,2.1616,2.1612,2.1637,2.1627,2.1643,2.1641,2.1622,2.1708,2.1721,2.1782,2.1665,2.1928,2.1936,2.1944,2.204,2.2058,2.2073,0,0,0,0,0,2.1504,2.1599,2.1573,2.1587,2.1648,2.1709,2.1717,2.1691,2.1642,2.1686,2.1683,2.1641,2.1768,2.1717,2.1731,2.1795,2.1924,2.1934,2.1943,2.2032,2.2054,2.2073,0,0,0,0,0,0,2.1599,2.16,2.1571,2.1672,2.1691,2.1695,2.175,2.1716,2.175,2.174,2.1708,2.1712,2.18,2.1806,2.1749,2.1906,2.1837,2.185,2.19,2.1921,2.1937,2.1934,2.167,0,0,0,0,0,2.1632,2.1681,2.1679,2.1768,2.1778,2.1763,2.1789,2.1767,2.1786,2.1794,2.1797,2.1817,2.1861,2.1891,2.1932,2.2039,2.2041,2.209,2.2107,2.2121,2.2133,2.2188,2.2209,2.198,2.198,2.198,0,0,2.17,2.1706,2.174,2.1787,2.1799,2.1851,2.1771,2.1829,2.1867,2.1803,2.188,2.1883,2.1903,2.1998,2.204,2.2006,2.2196,2.2133,2.2144,2.2149,2.22,2.2222,2.2241,2.1987,2.1986,2.1985,0,0,2.185,2.186,2.1934,2.1947,2.1966,2.1954,2.1972,2.1981,2.198,2.2056,2.2009,2.2053,2.213,2.2146,2.2164,2.2316,2.2278,2.233,2.2418,2.2472,2.249,2.2506,2.256,2.2579,2.2342,2.2342,2.2342,0,2.1933,2.2008,2.1977,2.2038,2.2059,2.2001,2.2075,2.209,2.2122,2.2138,2.2098,2.2191,2.2201,2.2298,2.2335,2.2352,2.237,2.2329,2.249,2.2506,2.252,2.2571,2.2591,2.2348,2.2348,2.2347,2.2346,0,2.2108,2.2161,2.2218,2.2248,2.2276,2.2343,2.2322,2.2353,2.2328,2.2321,2.2398,2.2407,2.2447,2.2468,2.2446,2.2561,2.2539,2.2496,2.2425,2.2549,2.2595,2.2615,2.2357,2.2355,2.2353,2.2351,0,0,2.2322,2.2331,2.2352,2.2364,2.2379,2.2419,2.2483,2.2521,2.2548,2.2571,2.2623,2.2688,2.2647,2.2667,2.2645,2.2693,2.2811,2.2643,2.2642,2.2673,2.2937,2.297,2.2993,2.2785,2.2788,2.2791,2.2935,0,2.247,2.2579,2.2551,2.2659,2.2707,2.2651,2.2706,2.2721,2.2715,2.2754,2.2747,2.2793,2.2736,2.2747,2.2792,2.2787,2.2863,2.2776,2.2833,2.2836,2.283,2.3017,2.3053,2.3188,2.2953,2.2956,2.2959,0,2.2658,2.2686,2.2799,2.2803,2.2822,2.2872,2.2903,2.2941,2.2956,2.2948,2.2969,2.2936,2.2998,2.2927,2.3011,2.2953,2.2974,2.2975,2.2979,2.2984,2.2905,2.3027,2.3231,2.3252,2.2987,2.2985,2.2983,0,2.2802,2.2867,2.2943,2.2955,2.2962,2.2998,2.3003,2.3013,2.3037,2.3064,2.3078,2.3113,2.3132,2.3159,2.3136,2.3086,2.3224,2.3151,2.3219,2.3219,2.3251,2.325,2.3461,2.3265,2.3265,2.3264,2.3264,0,2.297,2.3041,2.3007,2.3054,2.3131,2.3097,2.3174,2.3173,2.3182,2.3227,2.318,2.3223,2.319,2.323,2.3213,2.3284,2.3294,2.3288,2.3283,2.3293,2.3294,2.3307,2.3297,2.3269,2.3268,2.3267,2.3266,0,2.3145,2.3125,2.3203,2.3202,2.3203,2.326,2.3259,2.3302,2.329,2.3347,2.3359,2.3342,2.3386,2.3365,2.3412,2.34,2.3492,2.3474,2.3487,2.3483,2.3551,2.3545,2.378,2.3808,2.3593,2.3596,2.3597,0,2.3254,2.3307,2.3311,2.3336,2.3344,2.3387,2.3409,2.3377,2.3403,2.3422,2.3462,2.3502,2.3532,2.3605,2.3597,2.3632,2.3614,2.3694,2.362,2.3627,2.3615,2.3612,2.3617,2.3709,2.3712,2.3714,2.3716,0,2.345,2.3436,2.347,2.3501,2.3529,2.3552,2.3571,2.3595,2.3563,2.3594,2.3637,2.3661,2.3706,2.3746,2.3776,2.3781,2.3743,2.3738,2.3756,2.3767,2.3772,2.3769,2.3528,2.3734,2.3732,2.3731,2.373,2.3729,2.3594,2.3638,2.3646,2.3686,2.3695,2.3713,2.3752,2.3745,2.3781,2.3815,2.3793,2.3844,2.3855,2.3891,2.39,2.3939,2.3908,2.3933,2.394,2.3947,2.3955,2.3765,2.3944,2.3944,2.3943,2.3943,2.3943,0,2.3787,2.3789,2.3825,2.3851,2.3882,2.3841,2.3859,2.3887,2.3933,2.3945,2.3975,2.4024,2.4061,2.4055,2.4089,2.4121,2.4105,2.4131,2.4129,2.413,2.3982,2.3963,2.4144,2.4144,2.4144,2.4144,2.4144,2.4144,2.3891,2.3962,2.3949,2.4023,2.4024,2.4073,2.4086,2.4102,2.4111,2.4168,2.4198,2.4193,2.4198,2.4231,2.4263,2.426,2.4275,2.4308,2.4299,2.4161,2.4141,2.4122,2.4104,2.4311,2.4311,2.4443,2.4444,2.4445]},{"header":{"parameterUnit":"m.s-1","parameterCategory":1,"la1":30.2991,"la2":30.254,"lo1":-89.0895,"lo2":-89.0444,"dy":0.0017,"dx":0.0017,"nx":28,"ny":28,"refTime":"2023-08-12T03:00:00:Z","depth":0,"parameterNumber":3,"parameterNumberName":"V-component_of_WINDS"},"data":[0,0,0,0,0,0,0,0,0,0,0,0,0,0,0,0,0,0,0,0,0,0,0,0,0,0,0,0,0,0,0,0,0,0,0,0,0,0,0,0,0,0,0,0,0,0,0,0,0,0,0,0,0,0,0,0,0,0,5.4702,5.4702,0,5.4726,5.4726,5.4727,5.4653,5.4651,5.4648,5.4646,5.4668,5.4671,5.4673,0,0,0,0,0,0,0,0,0,0,0,0,0,5.4587,5.459,5.4702,5.4702,5.4702,5.4726,5.4726,5.4727,5.4653,5.4651,5.4648,5.4645,5.4667,5.467,5.4674,0,0,0,0,0,0,0,0,0,0,0,0,0,5.4627,5.459,5.4701,5.4669,5.4666,5.4726,5.4726,5.4727,5.4654,5.4651,5.4647,5.4644,5.4666,5.467,5.4674,5.4766,0,0,5.4686,5.4688,0,0,0,0,0,0,0,0,5.4624,5.4631,5.4673,5.4671,5.4668,5.4683,5.4694,5.474,5.4655,5.4658,5.4646,5.4642,5.4676,5.4679,5.469,5.4767,5.4768,5.4687,5.4689,5.4691,5.4692,0,0,0,0,0,0,0,5.4622,5.4629,5.4711,5.4674,5.4671,5.4651,5.4653,5.4702,5.4685,5.4658,5.4653,5.4657,5.4673,5.4687,5.469,5.4768,5.4686,5.469,5.4692,5.4694,5.4919,5.4922,0,0,0,0,0,0,5.4624,5.4628,5.471,5.4712,5.4638,5.4656,5.4658,5.4682,5.4685,5.4682,5.4659,5.4653,5.4682,5.4686,5.4691,5.4797,5.4691,5.4694,5.4697,5.4915,5.492,5.4924,0,0,0,0,0,0,5.4622,5.4632,5.4709,5.4668,5.4677,5.4661,5.4688,5.4684,5.4697,5.4686,5.4682,5.4676,5.4679,5.4685,5.4748,5.4797,5.4696,5.47,5.4911,5.4917,5.4922,5.5011,0,0,0,0,0,0,5.4619,5.4632,5.4668,5.467,5.4679,5.4767,5.4692,5.4687,5.4704,5.4696,5.4701,5.4698,5.4677,5.4742,5.4752,5.48,5.4703,5.4907,5.4914,5.492,5.5003,5.5019,5.5032,0,0,0,0,0,5.4615,5.4691,5.467,5.468,5.4724,5.477,5.4775,5.475,5.4709,5.4744,5.4736,5.4698,5.479,5.4749,5.4759,5.481,5.4903,5.4912,5.492,5.4997,5.5016,5.5031,0,0,0,0,0,0,5.4694,5.4691,5.4667,5.4747,5.4759,5.4758,5.4801,5.4771,5.4795,5.4786,5.4753,5.4754,5.4822,5.4822,5.4776,5.4898,5.4839,5.485,5.4895,5.4913,5.4926,5.4924,5.4706,0,0,0,0,0,5.4722,5.4761,5.4755,5.4826,5.4834,5.4817,5.4836,5.4815,5.4826,5.4831,5.4828,5.484,5.4871,5.4892,5.492,5.5004,5.5002,5.5043,5.5058,5.5069,5.5078,5.512,5.5138,5.495,5.495,5.495,0,0,5.4777,5.478,5.4807,5.4842,5.4849,5.4889,5.4821,5.4866,5.4895,5.4837,5.4896,5.4894,5.4905,5.4978,5.5009,5.498,5.513,5.5079,5.5089,5.5091,5.513,5.5148,5.5164,5.4956,5.4955,5.4954,0,0,5.4898,5.4906,5.4965,5.4973,5.4986,5.4974,5.4988,5.4991,5.4988,5.5046,5.5003,5.5036,5.5091,5.51,5.5111,5.5235,5.52,5.5246,5.5318,5.536,5.5374,5.5387,5.5429,5.5445,5.5255,5.5255,5.5255,0,5.4966,5.5025,5.4998,5.5046,5.5062,5.5013,5.5071,5.508,5.5101,5.5112,5.5079,5.5146,5.515,5.5223,5.5253,5.5265,5.5279,5.5244,5.5375,5.5387,5.5399,5.5439,5.5455,5.526,5.526,5.5259,5.5259,0,5.5106,5.5147,5.5193,5.5215,5.5236,5.5289,5.5268,5.5293,5.5271,5.5262,5.5321,5.5323,5.535,5.5367,5.5346,5.5437,5.5418,5.5381,5.5321,5.5423,5.5459,5.5474,5.5268,5.5266,5.5264,5.5263,0,0,5.5277,5.5283,5.53,5.5308,5.5318,5.5349,5.5399,5.5426,5.5446,5.5463,5.5502,5.555,5.5515,5.5528,5.5507,5.5544,5.5639,5.5502,5.5501,5.5525,5.5738,5.5764,5.5782,5.5617,5.562,5.5622,5.5736,0,5.5394,5.5481,5.5458,5.5543,5.558,5.5534,5.5576,5.5586,5.5579,5.5608,5.56,5.5634,5.5587,5.5594,5.5629,5.5621,5.5681,5.5612,5.5651,5.5653,5.5648,5.5802,5.583,5.5937,5.575,5.5753,5.5755,0,5.5543,5.5565,5.5654,5.5656,5.5671,5.571,5.5732,5.5762,5.5771,5.5763,5.5778,5.575,5.5797,5.5739,5.5802,5.5756,5.5771,5.5769,5.5773,5.5774,5.5709,5.5804,5.5971,5.5986,5.5777,5.5775,5.5774,0,5.5656,5.5708,5.5767,5.5776,5.5781,5.5809,5.5812,5.5819,5.5836,5.5856,5.5866,5.5891,5.5904,5.5923,5.5901,5.5861,5.5968,5.5908,5.5961,5.5961,5.5983,5.5982,5.6152,5.5997,5.5997,5.5997,5.5996,0,5.5788,5.5844,5.5818,5.5854,5.5915,5.5888,5.5948,5.5945,5.5951,5.5985,5.5947,5.598,5.595,5.598,5.5963,5.6017,5.6024,5.6017,5.6012,5.602,5.602,5.6027,5.6018,5.6001,5.6,5.5999,5.5998,0,5.5924,5.5909,5.597,5.597,5.5971,5.6015,5.6014,5.6047,5.6037,5.6081,5.6089,5.6074,5.6106,5.6087,5.6121,5.6109,5.6179,5.6164,5.6176,5.6171,5.6224,5.6218,5.6403,5.6425,5.6258,5.626,5.6261,0,5.6008,5.605,5.6054,5.6074,5.608,5.6114,5.6131,5.6106,5.6126,5.6139,5.617,5.6199,5.6221,5.6275,5.6266,5.6291,5.6275,5.6338,5.6279,5.6285,5.6273,5.627,5.6273,5.635,5.6352,5.6353,5.6355,0,5.6159,5.6149,5.6177,5.6201,5.6223,5.6242,5.6256,5.6275,5.6249,5.6273,5.6306,5.6324,5.6357,5.6386,5.6407,5.6409,5.6377,5.6374,5.6387,5.6394,5.6398,5.6394,5.6206,5.6369,5.6368,5.6366,5.6366,5.6365,5.627,5.6304,5.6312,5.6343,5.6351,5.6366,5.6396,5.6391,5.6418,5.6444,5.6427,5.6466,5.6473,5.6498,5.6504,5.6532,5.6507,5.6526,5.6531,5.6535,5.6542,5.6395,5.6537,5.6536,5.6536,5.6535,5.6535,0,5.6416,5.6419,5.6448,5.647,5.6494,5.6464,5.6478,5.65,5.6534,5.6544,5.6567,5.6604,5.6632,5.6625,5.665,5.6674,5.666,5.6681,5.6678,5.6679,5.6564,5.6549,5.6692,5.6692,5.6692,5.6692,5.6692,5.6692,5.6495,5.655,5.6542,5.66,5.6602,5.664,5.6651,5.6663,5.6671,5.6714,5.6737,5.6733,5.6736,5.6761,5.6785,5.6782,5.6792,5.6818,5.681,5.6703,5.6687,5.6672,5.6658,5.6821,5.6821,5.6921,5.6922,5.6923]}]]